Location: Grust
(42.8833°N, 0.0333°W)
Time: 19:14:33
(UTC+00:00)

Cosmos 1825 Rocket - Pass Details

Date: 25 October 2020
Orbit: 603 x 631 km, 82.5° (Epoch: 23 November)

Event Time Altitude Azimuth Distance (km) Brightness Sun altitude
Rises 17:39:12 0° 354° (N) 2,928 7.0 -7.5°
Reaches altitude 10° 17:41:28 10° 357° (N) 2,013 6.1 -7.9°
Maximum altitude 17:45:55 67° 81° (E) 678 3.5 -8.7°
Drops below altitude 10° 17:50:17 10° 164° (SSE) 1,981 6.1 -9.5°
Sets 17:52:30 0° 167° (SSE) 2,878 6.9 -9.9°
